Tracking 28790 objects as of 19-Apr-2024
HD Live streaming from Space Station
objects crossing your sky now

IRIDIUM 33 DEB

Track IRIDIUM 33 DEB now!
10-day predictions


NORAD ID: 33884
Int'l Code: 1997-051BD
Perigee: 697.5 km
Apogee: 715.9 km
Inclination: 86.4 °
Period: 98.8 minutes
Semi major axis: 7077 km
RCS: 0.0883 m2 (small)
Launch date: September 14, 1997
Source: United States (US)
Launch site: TYURATAM MISSILE AND SPACE COMPLEX (TTMTR)

Note: This is SATELLITE DEBRIS
Your satellite tracking list
Your tracking list is empty




NASA's NSSDC Master Catalog

Two Line Element Set (TLE):
1 33884U 97051BD  24109.96959111  .00023720  00000-0  51374-2 0  9991
2 33884  86.3739 277.9204 0012986 231.3404 259.0437 14.58034033800029
Source of the keplerian elements: AFSPC